sat.trackr.live / text

‹ back to catalog

QIANFAN-25

NORAD 61558 · 2024-185G

PAYLOAD ACTIVE UNKNOWN

§ Identity

Operator
Country
PRC
Launch date
2024-10-15
Launch site
TAISC
Launch vehicle
Mass (kg)
RCS (m²)

External: N2YO · Heavens-Above · Gunter

§ Orbital elements

Epoch: 2026-05-25T03:02:19.473792Z

Period
102.41 min
Inclination
88.9834°
Eccentricity
0.0010781
Mean motion
14.06056100 rev/d
Perigee alt
865.1 km
Apogee alt
880.7 km
Semi-major
7,251.0 km
B*
2.4477e-4
RAAN
59.6855°
Arg perigee
167.5393°
Mean anomaly
192.6058°
Rev number
9,246

§ Raw data

QIANFAN-251 61558U 24185G   26145.12661428  .00000415  00000+0  24477-3 0  99992 61558  88.9834  59.6855 0010781 167.5393 192.6058 14.06056100 92461

JSON: /api/v1/satellites/61558 · /tle

For live sub-satellite position, see the globe view (requires WebGL).

§ Visibility from observer

Set your observer location to see the next 7 days of passes ≥ 10°. The values pass through the URL so the page stays shareable.

No JS? Fill the form by hand. The geolocation button needs JavaScript.